Regional Weather Roundup
Issued by NWS

Home | Current Version | Previous Version | Text Only | Print | Product List | Glossary On
Versions: 1 2 3 4 5 6 7 8 9 10 11 12 13 14 15 16 17 18 19 20 21 22 23 24 25 26 27 28 29 30 31 32 33 34 35 36 37 38 39 40 41 42 43 44 45 46 47 48 49 50
000
ASUS43 KMPX 271201
RWRMN
WEATHER ROUNDUP FOR MINNESOTA
NATIONAL WEATHER SERVICE TWIN CITIES/CHANHASSEN MN
600 AM CST THU NOV 27 2014


NOTE: "FAIR" INDICATES FEW OR NO CLOUDS BELOW 12,000 FEET WITH NO
SIGNIFICANT WEATHER AND/OR OBSTRUCTIONS TO VISIBILITY. N/A MEANS
CURRENT SKY AND/OR WEATHER CONDITIONS ARE NOT AVAILABLE.

MNZ060>063-068>070-271300-
   Twin Cities Metro

CITY           SKY/WX    TMP DP  RH WIND       PRES   REMARKS
TWIN CITIES    PTCLDY     0  -7  72 NW8       30.49R WCI -14
6HR MIN TEMP:   0; 6HR MAX TEMP:  11;

ST PAUL        PTCLDY     0  -5  79 NW9       30.51R WCI -15
CRYSTAL        PTCLDY     0  -7  72 NW7       30.49R WCI -13
EDEN PRAIRIE   PTCLDY    -1  -7  75 NW7       30.48R WCI -14
6HR MIN TEMP:  -1; 6HR MAX TEMP:  10;

$$
MNZ001>005-007-008-013>017-022>024-027-028-271300-
   Northwest Minnesota

CITY           SKY/WX    TMP DP  RH WIND       PRES   REMARKS
THIEF RVR FALL PTCLDY   -17 -20  83 S5        30.47F WCI -29
CROOKSTON      PTCLDY   -15 -18  84 S3        30.54S
FOSSTON        PTCLDY   -20 -27  69 CALM      30.47F
DETROIT LAKES  MOCLDY    -9 -15  77 CALM      30.48R
PARK RAPIDS    PTCLDY   -16 -21  78 W3        30.43F
MAHNOMEN       FAIR     -13 -18  80 CALM      30.48S
$$
MNZ006-009>011-018-025>026-271300-
   North Central Minnesota

CITY           SKY/WX    TMP DP  RH WIND       PRES   REMARKS
BAUDETTE       PTCLDY   -16 -21  78 CALM      30.45F
INTL FALLS     PTCLDY   -18 -23  77 CALM      30.45S
6HR MIN TEMP: -18; 6HR MAX TEMP: -10;

LONGVILLE      PTCLDY   -11 -15  84 CALM      30.45F
GRAND RAPIDS   PTCLDY   -11 -15  84 NW3       30.42F
COOK           MOCLDY   -18 -24  76 CALM      30.43S
WALKER         FAIR     -15 -19  79 CALM      30.45F
$$
MNZ012-019>021-037-271300-
   Northeast Minnesota

CITY           SKY/WX    TMP DP  RH WIND       PRES   REMARKS
DULUTH         PTCLDY    -7 -14  71 NW8       30.38F WCI -23
6HR MIN TEMP:  -8; 6HR MAX TEMP:  -2;

HIBBING        PTCLDY   -11 -17  75 N7        30.42S WCI -26
GRAND MARAIS     N/A     -4 -13  65 N22G33    30.39S WCI -28
$$
MNZ029>031-032-039>041-046>048-054>057-064-271300-
   West Central Minnesota

CITY           SKY/WX    TMP DP  RH WIND       PRES   REMARKS
WHEATON        PTCLDY    -9 -15  77 W3        30.56F
ALEXANDRIA     PTCLDY    -9 -13  83 W5        30.47R WCI -20
WADENA         PTCLDY   -11 -17  77 CALM      30.46S
WILLMAR        FAIR      -8 -13  77 NW8       30.51R WCI -23
$$
MNZ033>034-036-042>043-049>051-058-059-271300-
   Central Minnesota

CITY           SKY/WX    TMP DP  RH WIND       PRES   REMARKS
ST CLOUD       FAIR      -4 -10  75 NW8       30.49R WCI -19
6HR MIN TEMP:  -4; 6HR MAX TEMP:   4;

BRAINERD       PTCLDY    -8 -11  86 N5        30.46F WCI -19
LITTLE FALLS   PTCLDY    -6 -11  77 CALM      30.48F
MAPLE LAKE     PTCLDY    -2  -6  82 NW7       30.50R WCI -16
$$
MNZ037-044-045-052-053-271300-
   East Central Minnesota

CITY           SKY/WX    TMP DP  RH WIND       PRES   REMARKS
MORA           CLEAR     -4  -8  84 N5        30.49S WCI -15
CAMBRIDGE      CLEAR      0  -8  71 N5        30.47R WCI -10
CLOQUET        PTCLDY    -8 -13  77 NW9       30.42R WCI -25
$$
MNZ071>073-080-081-089-090-097-098-271300-
   Southwest Minnesota

CITY           SKY/WX    TMP DP  RH WIND       PRES   REMARKS
MARSHALL       PTCLDY    -9 -17  70 NW8       30.50F WCI -26
REDWOOD FALLS  PTCLDY    -9 -14  78 NW9       30.53R WCI -26
WORTHINGTON    PTCLDY    -9 -13  84 N7        30.46F WCI -24
SLAYTON        PTCLDY    -6 -11  81 NW7       30.47R WCI -21
$$
MNZ065>067-074>077-082>085-091>093-271300-
   South Central Minnesota

CITY           SKY/WX    TMP DP  RH WIND       PRES   REMARKS
MANKATO        PTCLDY    -8 -15  71 NW9       30.48R WCI -25
ST JAMES       PTCLDY    -8 -13  77 W9        30.51S WCI -25
FAIRMONT       PTCLDY    -6 -11  77 NW12      30.47R WCI -24
OWATONNA       PTCLDY    -9 -15  77 W3        30.45R
WASECA         PTCLDY    -8 -15  71 NW7       30.48R WCI -22
$$
MNZ078>079-086>088-094>096-271300-
   Southeast Minnesota

CITY           SKY/WX    TMP DP  RH WIND       PRES   REMARKS
ROCHESTER      PTCLDY    -2  -7  79 NW12      30.40R WCI -20
6HR MIN TEMP:  -2; 6HR MAX TEMP:  19; 6HR PCP: TRACE;

WINONA         PTCLDY    12   5  73 NW13      30.43R WCI  -3
AUSTIN         PTCLDY    -2  -8  78 NW8       30.42R WCI -17
PRESTON        CLEAR      4  -1  78 NW9       30.39R WCI -10
$$
ABBREVIATIONS USED IN REMARKS
   TC - TEMPERATURES IN CELSIUS
  WCI - WIND CHILL INDEX
   HX - HEAT INDEX
  VSB - VISIBILITY
$$


USA.gov is the U.S. government's official web portal to all federal, state and local government web resources and services.